FW4096 Weather Reports


time (UTC)temp
C
wind
direction
speed
KPH
gust
KPH
rain 1hr
cm
rain 24hr
cm
rain mn
cm
humidity
%
barometer
mb
20260506123106 9 319 11.3 17.7 0.00 0.00 0.00 69 1016.0
20260506122503 10 322 12.9 20.9 0.00 0.00 0.00 66 1016.0
20260506122106 10 328 14.5 20.9 0.00 0.00 0.00 66 1015.8
20260506121503 10 330 16.1 20.9 0.00 0.00 0.00 66 1015.8
20260506121107 10 329 16.1 20.9 0.00 0.00 0.00 70 1015.8
20260506120504 9 328 14.5 20.9 0.00 0.00 0.00 69 1015.7
20260506120004 10 329 12.9 19.3 0.00 0.00 0.00 66 1015.9
20260506115504 10 331 12.9 19.3 0.00 0.00 0.00 66 1015.9
20260506115004 10 330 14.5 19.3 0.00 0.00 0.00 65 1015.9
20260506114504 10 327 14.5 19.3 0.00 0.00 0.00 66 1015.9
20260506114005 10 328 14.5 19.3 0.00 0.00 0.00 65 1015.9
20260506113504 11 330 12.9 19.3 0.00 0.00 0.00 64 1015.9
20260506113107 11 331 12.9 17.7 0.00 0.00 0.00 66 1015.9
20260506112504 11 329 12.9 17.7 0.00 0.00 0.00 66 1015.8
20260506112004 11 329 12.9 17.7 0.00 0.00 0.00 66 1016.0
20260506111504 11 331 12.9 17.7 0.00 0.00 0.00 66 1015.9
20260506111004 10 327 12.9 17.7 0.00 0.00 0.00 66 1015.9
20260506110504 10 324 12.9 17.7 0.00 0.00 0.00 67 1016.0
20260506110004 11 326 11.3 19.3 0.00 0.00 0.00 66 1016.0
20260506105504 11 324 11.3 19.3 0.00 0.00 0.00 67 1016.0
20260506105004 10 326 12.9 17.7 0.00 0.00 0.00 68 1016.1
20260506104607 10 327 12.9 17.7 0.00 0.00 0.00 69 1016.1
20260506104004 10 324 11.3 17.7 0.00 0.00 0.00 69 1016.1
20260506103504 10 319 9.7 17.7 0.00 0.00 0.00 70 1016.2
20260506103107 10 316 9.7 17.7 0.00 0.00 0.00 72 1016.2
20260506102503 9 308 8.0 14.5 0.00 0.00 0.00 69 1016.2
20260506102004 9 303 9.7 14.5 0.00 0.00 0.00 72 1016.1
20260506101504 8 295 9.7 14.5 0.00 0.00 0.00 72 1016.2
20260506101107 8 294 9.7 14.5 0.00 0.00 0.00 73 1016.2
20260506100607 8 293 9.7 14.5 0.00 0.00 0.00 73 1016.2
20260506100107 8 291 9.7 16.1 0.00 0.00 0.00 75 1016.1
20260506095504 8 281 11.3 16.1 0.00 0.00 0.00 75 1016.1
20260506095003 8 281 11.3 17.7 0.00 0.00 0.00 74 1016.1
20260506094504 8 290 11.3 17.7 0.00 0.00 0.00 73 1016.0
20260506094003 8 300 9.7 16.1 0.00 0.00 0.00 73 1016.1
20260506093503 8 302 9.7 14.5 0.00 0.00 0.00 74 1016.0
20260506093003 8 297 9.7 14.5 0.00 0.00 0.00 74 1016.0
20260506092606 8 293 9.7 14.5 0.00 0.00 0.00 74 1016.0
20260506092107 8 295 9.7 14.5 0.00 0.00 0.00 75 1016.0
20260506091503 8 293 9.7 17.7 0.00 0.00 0.00 73 1015.9
20260506091106 8 291 9.7 17.7 0.00 0.00 0.00 74 1015.9
20260506090606 8 285 9.7 14.5 0.00 0.00 0.00 73 1015.9
20260506090106 7 283 9.7 16.1 0.00 0.00 0.00 73 1015.9
20260506085503 7 282 11.3 16.1 0.00 0.00 0.00 73 1015.9
20260506085003 8 287 9.7 16.1 0.00 0.00 0.00 73 1015.8
20260506084503 8 296 9.7 16.1 0.00 0.00 0.00 74 1015.7
20260506084106 8 303 9.7 16.1 0.00 0.00 0.00 74 1015.6
20260506083606 7 290 11.3 16.1 0.00 0.00 0.00 74 1015.6
20260506083003 7 285 11.3 17.7 0.00 0.00 0.00 75 1015.6
20260506082503 7 285 11.3 17.7 0.00 0.00 0.00 76 1015.6
20260506082005 7 281 11.3 17.7 0.00 0.00 0.00 76 1015.6
20260506081504 7 282 11.3 17.7 0.00 0.00 0.00 78 1015.6
20260506081004 7 282 11.3 16.1 0.00 0.00 0.00 77 1015.6
20260506080504 7 279 11.3 16.1 0.00 0.00 0.00 77 1015.4
20260506073504 7 284 11.3 14.5 0.00 0.00 0.00 78 1015.2
20260506073004 7 285 11.3 16.1 0.00 0.00 0.00 78 1015.2
20260506072504 7 287 9.7 16.1 0.00 0.00 0.00 79 1015.2
20260506071504 7 300 8.0 14.5 0.00 0.00 0.00 78 1015.0
20260506071004 7 299 8.0 14.5 0.00 0.00 0.00 80 1014.9
20260506070504 7 287 8.0 14.5 0.00 0.00 0.00 79 1014.8
20260506062504 7 304 8.0 12.9 0.00 0.00 0.00 81 1014.7
20260506062004 6 292 8.0 14.5 0.00 0.00 0.00 80 1014.8
20260506061503 6 285 6.4 14.5 0.00 0.00 0.00 80 1014.8
20260506061004 6 293 6.4 12.9 0.00 0.00 0.00 81 1014.8
20260506060504 6 290 6.4 12.9 0.00 0.00 0.00 82 1014.6
20260506051003 5 301 6.4 12.9 0.00 0.00 0.00 91 1014.0
20260506050503 5 296 6.4 12.9 0.00 0.00 0.00 92 1014.1
20260506045004 5 299 6.4 11.3 0.00 0.00 0.00 93 1014.1
20260506044503 5 296 6.4 11.3 0.00 0.00 0.00 93 1014.0
20260506044003 4 297 4.8 11.3 0.00 0.00 0.00 93 1013.9
20260506043503 3 311 1.6 11.3 0.00 0.00 0.00 93 1013.9
20260506043003 3 61 0.0 3.2 0.00 0.00 0.00 92 1013.8
20260506042504 2 0 0.0 0.0 0.00 0.00 0.00 92 1013.7
20260506042004 2 0 0.0 0.0 0.00 0.00 0.00 92 1013.6
20260506041504 1 0 0.0 0.0 0.00 0.00 0.00 92 1013.6
20260506041004 1 0 0.0 0.0 0.00 0.00 0.00 92 1013.6
20260506040504 1 0 0.0 0.0 0.00 0.00 0.00 92 1013.6
20260506040004 1 0 0.0 0.0 0.00 0.00 0.00 92 1013.5
20260506035504 1 0 0.0 0.0 0.00 0.00 0.00 92 1013.4
20260506035107 1 0 0.0 0.0 0.00 0.00 0.00 92 1013.3
20260506034504 0 0 0.0 0.0 0.00 0.00 0.00 91 1013.2
20260506034004 0 111 0.0 3.2 0.00 0.00 0.00 91 1013.2
20260506033504 0 111 0.0 3.2 0.00 0.00 0.00 91 1013.2
20260506033004 0 111 0.0 1.6 0.00 0.00 0.00 91 1013.1
20260506032504 0 111 1.6 4.8 0.00 0.00 0.00 91 1013.1
20260506032004 -1 111 1.6 4.8 0.00 0.00 0.00 90 1013.0
20260506031504 -1 111 1.6 3.2 0.00 0.00 0.00 90 1012.9
20260506031004 -1 111 1.6 4.8 0.00 0.00 0.00 90 1012.8
20260506030504 0 111 1.6 4.8 0.00 0.00 0.00 90 1012.7
20260506030107 0 111 0.0 3.2 0.00 0.00 0.00 90 1012.6
20260506025504 0 111 1.6 3.2 0.00 0.00 0.00 90 1012.7
20260506025004 0 111 1.6 3.2 0.00 0.00 0.00 90 1012.6
20260506024503 0 111 1.6 4.8 0.00 0.00 0.00 91 1012.6
20260506024003 0 103 1.6 4.8 0.00 0.00 0.00 91 1012.5
20260506023504 -1 91 1.6 4.8 0.00 0.00 0.00 90 1012.5
20260506023004 -1 64 1.6 3.2 0.00 0.00 0.00 90 1012.5
20260506022504 -1 64 1.6 4.8 0.00 0.00 0.00 90 1012.4
20260506022107 -1 64 3.2 4.8 0.00 0.00 0.00 90 1012.4
20260506021503 -1 64 3.2 4.8 0.00 0.00 0.00 90 1012.4
20260506021004 0 64 3.2 4.8 0.00 0.00 0.00 90 1012.3
20260506020504 0 63 3.2 4.8 0.00 0.00 0.00 90 1012.2
20260506020004 0 63 3.2 4.8 0.00 0.00 0.00 90 1012.2
20260506015607 0 63 3.2 4.8 0.00 0.00 0.00 90 1012.2
20260506015003 0 63 1.6 4.8 0.00 0.00 0.00 90 1012.2
20260506014606 0 63 1.6 3.2 0.00 0.00 0.00 90 1012.2
20260506014003 0 63 3.2 4.8 0.00 0.00 0.00 90 1012.1
20260506013606 0 61 3.2 4.8 0.00 0.00 0.00 90 1012.1
20260506013003 0 57 4.8 4.8 0.00 0.00 0.00 89 1012.1
20260506012503 -1 54 4.8 4.8 0.00 0.00 0.00 89 1012.1
20260506012003 0 49 3.2 4.8 0.00 0.00 0.00 89 1012.1
20260506011606 0 45 3.2 4.8 0.00 0.00 0.00 88 1012.1
20260506011003 0 41 0.0 4.8 0.00 0.00 0.00 89 1012.0
20260506010503 0 0 0.0 0.0 0.00 0.00 0.00 89 1012.0
20260506010003 0 0 0.0 0.0 0.00 0.00 0.00 89 1012.0
20260506005503 1 0 0.0 0.0 0.00 0.00 0.00 89 1011.9
20260506005003 1 0 0.0 0.0 0.00 0.00 0.00 89 1011.9
20260506004504 1 26 1.6 3.2 0.00 0.00 0.00 90 1011.9
20260506004003 1 26 3.2 4.8 0.00 0.00 0.00 89 1011.8
20260506003504 0 26 3.2 4.8 0.00 0.00 0.00 89 1011.8
20260506003107 1 26 3.2 4.8 0.00 0.00 0.00 88 1011.8
20260506002608 1 26 1.6 3.2 0.00 0.00 0.00 88 1011.8
20260506002108 1 26 1.6 3.2 0.00 0.00 0.00 88 1011.7
20260506001504 2 26 0.0 1.6 0.00 0.00 0.00 90 1011.7
20260506001004 2 0 0.0 0.0 0.00 0.00 0.00 90 1011.6
20260506000504 2 26 0.0 1.6 0.00 0.00 0.00 90 1011.6
20260506000004 2 26 0.0 3.2 0.00 0.00 0.00 89 1011.5
20260505235504 2 26 1.6 3.2 0.00 0.00 0.00 89 1011.6
20260505235004 1 26 1.6 3.2 0.00 0.00 0.00 88 1011.5
20260505234504 1 25 3.2 4.8 0.00 0.00 0.00 87 1011.5
20260505234003 1 25 3.2 4.8 0.00 0.00 0.00 87 1011.5
20260505233504 2 24 3.2 4.8 0.00 0.00 0.00 87 1011.4
20260505233004 2 17 1.6 4.8 0.00 0.00 0.00 86 1011.3
20260505232504 3 340 1.6 4.8 0.00 0.00 0.00 86 1011.3
20260505232004 3 315 1.6 4.8 0.00 0.00 0.00 87 1011.3
20260505231504 3 308 3.2 11.3 0.00 0.00 0.00 87 1011.3
20260505231004 4 300 3.2 11.3 0.00 0.00 0.00 88 1011.3
20260505230107 4 286 4.8 11.3 0.00 0.00 0.00 88 1011.3
20260505225606 4 291 4.8 12.9 0.00 0.00 0.00 88 1011.3
20260505225003 4 295 4.8 12.9 0.00 0.00 0.00 88 1011.2
20260505224607 4 301 4.8 11.3 0.00 0.00 0.00 88 1011.1
20260505224003 4 293 6.4 14.5 0.00 0.00 0.00 88 1011.2
20260505223503 4 298 6.4 14.5 0.00 0.00 0.00 88 1011.1
20260505223106 3 304 6.4 12.9 0.00 0.00 0.00 87 1011.1
20260505222504 3 316 6.4 11.3 0.00 0.00 0.00 87 1011.2
20260505222003 3 316 8.0 12.9 0.00 0.00 0.00 87 1011.1
20260505221503 4 315 8.0 12.9 0.00 0.00 0.00 87 1011.2
20260505221003 3 318 8.0 12.9 0.00 0.00 0.00 87 1011.1
20260505220503 3 319 8.0 14.5 0.00 0.00 0.00 87 1011.2
20260505220106 3 320 8.0 14.5 0.00 0.00 0.00 87 1011.2
20260505215503 4 320 8.0 12.9 0.00 0.00 0.00 87 1011.1
20260505215107 4 314 6.4 12.9 0.00 0.00 0.00 87 1011.1
20260505214503 4 302 6.4 16.1 0.00 0.00 0.00 87 1011.1
20260505214003 4 303 8.0 16.1 0.00 0.00 0.00 87 1011.0
20260505213503 4 314 9.7 14.5 0.00 0.00 0.00 87 1011.0
20260505213003 4 317 9.7 16.1 0.00 0.00 0.00 87 1011.0
20260505212503 4 316 9.7 17.7 0.00 0.00 0.00 87 1010.9
20260505212003 4 315 9.7 17.7 0.00 0.00 0.00 86 1010.9
20260505211503 4 311 11.3 19.3 0.00 0.00 0.00 86 1010.9
20260505211004 4 309 11.3 19.3 0.00 0.00 0.00 86 1010.9
20260505210504 4 309 9.7 19.3 0.00 0.00 0.00 86 1010.9
20260505210107 4 311 9.7 19.3 0.00 0.00 0.00 86 1010.8
20260505205607 4 317 11.3 19.3 0.00 0.00 0.00 86 1010.9
20260505205004 4 317 9.7 17.7 0.00 0.00 0.00 85 1010.8
20260505204504 4 319 9.7 17.7 0.00 0.00 0.00 85 1010.8
20260505204004 4 316 9.7 16.1 0.00 0.00 0.00 85 1010.6
20260505203504 4 311 8.0 14.5 0.00 0.00 0.00 85 1010.7
20260505203004 5 307 8.0 16.1 0.00 0.00 0.00 85 1010.6
20260505202504 5 301 9.7 20.9 0.00 0.00 0.00 85 1010.6
20260505202107 5 298 11.3 20.9 0.00 0.00 0.00 85 1010.4
20260505201504 5 299 11.3 17.7 0.00 0.00 0.00 85 1010.4
20260505201004 5 293 9.7 17.7 0.00 0.00 0.00 85 1010.5
20260505200504 5 286 11.3 19.3 0.00 0.00 0.00 86 1010.3
20260505200004 5 286 12.9 19.3 0.00 0.00 0.00 85 1010.3
20260505195503 5 287 12.9 19.3 0.00 0.00 0.00 86 1010.2
20260505195004 5 292 11.3 19.3 0.00 0.00 0.00 86 1010.2
20260505194504 4 305 8.0 16.1 0.00 0.00 0.00 86 1010.2
20260505194004 4 320 8.0 17.7 0.00 0.00 0.00 86 1010.2
20260505193504 4 319 9.7 17.7 0.00 0.00 0.00 86 1010.2
20260505193004 5 314 11.3 17.7 0.00 0.00 0.00 86 1010.2
20260505192504 5 314 11.3 17.7 0.00 0.00 0.00 86 1010.3
20260505192003 5 309 9.7 17.7 0.00 0.00 0.00 86 1010.2
20260505191503 5 306 9.7 17.7 0.00 0.00 0.00 86 1010.3
20260505191004 5 308 9.7 17.7 0.00 0.00 0.00 86 1010.1
20260505190504 5 310 9.7 17.7 0.00 0.00 0.00 86 1010.2
20260505190106 5 316 11.3 17.7 0.00 0.00 0.00 86 1010.2
20260505185503 5 316 11.3 20.9 0.00 0.00 0.00 85 1010.2
20260505185003 5 313 9.7 20.9 0.00 0.00 0.00 86 1010.2
20260505184503 5 318 11.3 20.9 0.00 0.00 0.00 85 1010.1
20260505184003 5 316 11.3 19.3 0.00 0.00 0.00 85 1010.2
20260505183503 5 311 9.7 19.3 0.00 0.00 0.00 85 1010.1
20260505183003 5 311 9.7 19.3 0.00 0.00 0.00 84 1010.1
20260505182503 5 313 9.7 17.7 0.00 0.00 0.00 84 1010.0
20260505182003 5 316 9.7 17.7 0.00 0.00 0.00 83 1009.9
20260505181606 5 308 9.7 17.7 0.00 0.00 0.00 82 1009.9
20260505181003 5 298 9.7 19.3 0.00 0.00 0.00 82 1009.8
20260505180503 5 297 9.7 17.7 0.00 0.00 0.00 82 1009.9
20260505180106 6 295 9.7 17.7 0.00 0.00 0.00 82 1009.8
20260505175606 6 300 9.7 16.1 0.00 0.00 0.00 82 1009.7
20260505175003 6 300 9.7 16.1 0.00 0.00 0.00 82 1009.7
20260505174503 6 299 8.0 16.1 0.00 0.00 0.00 82 1009.7
20260505174003 6 293 9.7 17.7 0.00 0.00 0.00 82 1009.7
20260505173503 6 296 11.3 17.7 0.00 0.00 0.00 82 1009.7
20260505173106 6 307 9.7 16.1 0.00 0.00 0.00 82 1009.7
20260505172503 6 317 9.7 16.1 0.00 0.00 0.00 82 1009.7
20260505172003 6 312 9.7 17.7 0.00 0.00 0.00 82 1009.7
20260505171504 6 307 9.7 17.7 0.00 0.00 0.00 82 1009.8
20260505171004 6 300 8.0 17.7 0.00 0.00 0.00 82 1009.7
20260505170504 6 295 8.0 16.1 0.00 0.00 0.00 82 1009.8
20260505170004 6 303 9.7 16.1 0.00 0.00 0.00 82 1009.7
20260505165504 6 304 8.0 16.1 0.00 0.00 0.00 82 1009.7
20260505165004 6 305 9.7 19.3 0.00 0.00 0.00 81 1009.7
20260505164504 6 311 11.3 19.3 0.00 0.00 0.00 82 1009.6
20260505164004 6 308 11.3 17.7 0.00 0.00 0.00 81 1009.5
20260505163504 6 300 11.3 17.7 0.00 0.00 0.00 82 1009.6
20260505163009 6 299 11.3 17.7 0.00 0.00 0.00 82 1009.6
20260505162504 7 307 9.7 17.7 0.00 0.00 0.00 81 1009.6
20260505162004 7 299 11.3 16.1 0.00 0.00 0.00 82 1009.6
20260505161504 6 290 11.3 16.1 0.00 0.00 0.00 82 1009.6
20260505161004 7 301 9.7 16.1 0.00 0.00 0.00 81 1009.6
20260505160504 7 301 9.7 19.3 0.00 0.00 0.00 83 1009.6
20260505160107 6 292 11.3 19.3 0.00 0.00 0.00 83 1009.7
20260505153004 6 284 12.9 20.9 0.00 0.00 0.00 84 1009.4
20260505152607 6 282 12.9 20.9 0.00 0.00 0.00 84 1009.5
20260505152107 6 284 12.9 20.9 0.00 0.00 0.00 84 1009.4
20260505151503 6 284 12.9 20.9 0.00 0.00 0.00 85 1009.5
20260505151004 6 282 14.5 20.9 0.00 0.00 0.00 85 1009.5
20260505150503 6 282 14.5 20.9 0.00 0.00 0.00 84 1009.4
20260505140503 7 309 11.3 20.9 0.00 0.00 0.00 83 1009.3
20260505125004 8 309 14.5 22.5 0.00 0.00 0.00 83 1008.9
20260505124504 7 306 14.5 22.5 0.00 0.00 0.00 82 1008.9
20260505124004 7 304 14.5 22.5 0.00 0.00 0.00 82 1008.8
20260505123504 7 304 14.5 22.5 0.00 0.00 0.00 82 1008.9